User: anonymous   Login
Location: Ku?niki
(51.4449°N, 17.8974°E)
Time: 09:34:42
(UTC+00:00)
Language:

FO-29 - Orbit

View from above orbital plane
View from above orbital plane
View from above satellite
View from above satellite

Ground track
Ground track

The orbit data is extracted from the following two-line orbital elements,

1 24278U 96046B   22177.89711146 -.00000003  00000-0  35297-4 0  9998
2 24278  98.5152 200.2885 0349224 258.7786  97.3919 13.53116530276884
Epoch (UTC): 26 June 2022 21:31:50
Eccentricity: 0.0349224
inclination: 98.5152°
perigee height: 801 km
apogee height: 1320 km
right ascension of ascending node: 200.2885°
argument of perigee: 258.7786°
revolutions per day: 13.53116530
mean anomaly at epoch: 97.3919°
orbit number at epoch: 27688

The dashed part of the orbit path shows where the satellite is in the earth's shadow,  

DLR